Ft Lauderdale, FL

11:16 AM EDT on August 21, 2017 (GMT -0400)
Fort Lauderdale-Hollywood International

Weather History for KFLL - April, 2013

Change the Weather History Date:

Wednesday, April 3, 2013

  Actual Average Record
Temperature  
Mean Temperature 77 °F 75 °F  
Max Temperature 82 °F 82 °F 91 °F (1954)
Min Temperature 71 °F 68 °F 45 °F (1925)
Degree Days  
Heating Degree Days 0 0  
Month to date heating degree days 0 0  
Since 1 July heating degree days 85 111  
Cooling Degree Days 12 10  
Month to date cooling degree days 35 30  
Year to date cooling degree days 624 640  
Growing Degree Days 26 (Base 50)    
Moisture  
Dew Point 68 °F    
Average Humidity 73    
Maximum Humidity 84    
Minimum Humidity 62    
Precipitation  
Precipitation 0.00 in 0.11 in 2.70 in (1948)
Month to date precipitation 0.18 0.37  
Year to date precipitation 3.39 10.32  
Snow  
Snow 0.00 in - - ()
Month to date snowfall 0.0  
Since 1 July snowfall 0.0  
Snow Depth 0.00 in    
Sea Level Pressure  
Sea Level Pressure 30.03 in    
Wind  
Wind Speed 10 mph (SE)    
Max Wind Speed 18 mph    
Max Gust Speed 25 mph    
Visibility 10 miles    
Events      
T = Trace of Precipitation, MM = Missing Value Source: NWS Daily Summary

Daily Weather History Graph

Daily Weather History Graph

Search for Another Location

Airport or City:

Trip Planner

Search our weather history database for the weather conditions in past years. The results will help you decide how hot, cold, wet, or windy it might be!

Date:

Astronomy

Apr. 03, 2013 Rise Set
Actual Time 7:09 AM EDT 7:38 PM EDT
Civil Twilight 6:46 AM EDT 8:01 PM EDT
Nautical Twilight 6:18 AM EDT 8:28 PM EDT
Astronomical Twilight 5:51 AM EDT 8:56 PM EDT
Moon 2:12 AM EDT (4/3) 1:24 PM EDT (4/3)
Length of Visible Light 13h 15m
Length of Day
12h 29m
Last Quarter, 45% of the Moon is Illuminated
Apr 3
Last Quarter
Apr 10
New
Apr 18
First Quarter
Apr 25
Full
May 2
Last Quarter

Hourly Weather History & Observations

Time (EDT) Temp. Heat Index Dew Point Humidity Pressure Visibility Wind Dir Wind Speed Gust Speed Precip Events Conditions
12:53 AM 73.9 °F - 66.9 °F 79% 30.07 in 10.0 mi East 5.8 mph - N/A   Partly Cloudy
1:53 AM 73.0 °F - 66.9 °F 81% 30.06 in 10.0 mi ESE 5.8 mph - N/A   Partly Cloudy
2:53 AM 73.0 °F - 66.0 °F 79% 30.05 in 10.0 mi East 4.6 mph - N/A   Partly Cloudy
3:53 AM 71.1 °F - 66.0 °F 84% 30.04 in 10.0 mi ESE 5.8 mph - N/A   Partly Cloudy
4:53 AM 72.0 °F - 66.0 °F 81% 30.02 in 10.0 mi ESE 9.2 mph - N/A   Partly Cloudy
5:53 AM 73.0 °F - 66.0 °F 79% 30.03 in 10.0 mi ESE 6.9 mph - N/A   Partly Cloudy
6:53 AM 73.0 °F - 66.9 °F 81% 30.03 in 10.0 mi SE 6.9 mph - N/A   Partly Cloudy
7:53 AM 73.9 °F - 66.9 °F 79% 30.04 in 10.0 mi SE 8.1 mph - N/A   Partly Cloudy
8:53 AM 75.9 °F - 66.9 °F 74% 30.05 in 10.0 mi SE 10.4 mph - N/A   Partly Cloudy
9:53 AM 78.1 °F - 68.0 °F 71% 30.06 in 10.0 mi SE 15.0 mph - N/A   Partly Cloudy
10:53 AM 80.1 °F 82.3 °F 66.9 °F 64% 30.06 in 10.0 mi SE 15.0 mph - N/A   Mostly Cloudy
11:53 AM 79.0 °F - 68.0 °F 69% 30.04 in 10.0 mi SE 17.3 mph 21.9 mph N/A   Partly Cloudy
12:53 PM 81.0 °F 83.8 °F 68.0 °F 65% 30.03 in 10.0 mi SE 15.0 mph 25.3 mph N/A   Clear
1:53 PM 81.0 °F 83.8 °F 68.0 °F 65% 30.03 in 10.0 mi SE 15.0 mph - N/A   Partly Cloudy
2:41 PM 80.6 °F 83.2 °F 68.0 °F 65% 30.01 in 10.0 mi ESE 13.8 mph 20.7 mph N/A   Mostly Cloudy
2:51 PM 80.6 °F 83.2 °F 68.0 °F 65% 30.01 in 10.0 mi SSE 13.8 mph - N/A   Partly Cloudy
2:53 PM 80.1 °F 82.7 °F 68.0 °F 67% 30.01 in 10.0 mi SE 11.5 mph - N/A   Partly Cloudy
3:53 PM 79.0 °F - 68.0 °F 69% 30.00 in 10.0 mi SE 13.8 mph 23.0 mph N/A   Scattered Clouds
4:53 PM 79.0 °F - 68.0 °F 69% 30.00 in 10.0 mi SE 13.8 mph - N/A   Scattered Clouds
5:53 PM 78.1 °F - 68.0 °F 71% 30.00 in 10.0 mi SSE 11.5 mph - N/A   Partly Cloudy
6:53 PM 77.0 °F - 69.1 °F 76% 30.01 in 10.0 mi ESE 10.4 mph - N/A   Partly Cloudy
7:53 PM 75.9 °F - 69.1 °F 79% 30.02 in 10.0 mi ESE 6.9 mph - N/A   Partly Cloudy
8:53 PM 75.0 °F - 69.1 °F 82% 30.03 in 10.0 mi ESE 6.9 mph - N/A   Partly Cloudy
9:53 PM 75.0 °F - 70.0 °F 84% 30.04 in 10.0 mi SE 8.1 mph - N/A   Partly Cloudy
10:53 PM 75.0 °F - 70.0 °F 84% 30.04 in 10.0 mi SE 11.5 mph - N/A   Scattered Clouds
11:53 PM 75.0 °F - 69.1 °F 82% 30.05 in 10.0 mi SE 8.1 mph - N/A   Partly Cloudy